Location: Vlissingen
(51.4500°N, 3.5830°E)
Time: 07:18:31
(UTC+01:00)

Daily predictions for brighter satellites

Satellite Brightness Start Highest point End
(mag) Time Altitude Azimuth Time Altitude Azimuth Time Altitude Azimuth
Meteor 2-16 Rocket 4.5 19:27:55 10° S 19:34:03 77° E 19:40:12 10° NNE
Cosmos 2084 Rocket 3.5 19:30:42 10° SSW 19:34:35 48° SE 19:38:21 10° NE
Cosmos 2098 4.3 19:32:48 10° S 19:35:56 53° E 19:38:52 10° NNE
Cosmos 2344 4.1 19:36:56 10° S 19:43:56 39° ESE 19:51:50 10° NE
Cosmos 482 Debris 2.4 19:45:44 10° W 19:47:46 73° N 19:49:15 13° E
Helios 1B rocket 3.6 19:44:32 10° NE 19:47:46 22° E 19:50:59 10° SE
In-Cosmos 22 4.2 19:44:51 10° N 19:50:09 55° ENE 19:55:20 10° SSE
CZ-2D R/B 3.3 19:49:41 10° SSE 19:53:31 65° ENE 19:57:23 10° N
Helios 1A 3.3 19:49:47 10° SE 19:53:47 47° ENE 19:57:50 10° N
Cosmos 405 3.0 19:50:35 10° S 19:54:07 90° ESE 19:57:41 10° NNE
Cosmos 1674 4.0 19:53:17 10° NNE 19:56:15 21° ENE 19:58:44 12° ESE
Cosmos 1844 Rocket 2.7 19:50:53 10° SSW 19:56:27 63° ESE 20:02:03 10° NE
Cosmos 1805 4.3 19:56:40 10° SE 19:59:54 26° E 20:03:11 10° NNE
Cosmos 1833 Rocket 3.2 19:55:36 10° NNW 20:00:57 42° NE 20:05:44 13° ESE
Cosmos 1934 Rocket 3.9 19:55:15 10° S 20:01:18 64° E 20:07:19 10° NNE
Spot 2 Rocket 3.6 19:56:24 10° SSE 20:01:31 84° WSW 20:06:41 10° NNW
SJ-6B 4.4 19:58:32 10° SSW 20:02:01 37° W 20:05:32 10° NNW
Cosmos 1437 Rocket 2.7 19:58:15 10° S 20:02:16 77° E 20:06:22 10° NNE
Resurs 1-3 3.6 19:58:03 10° SSE 20:02:27 88° WSW 20:06:53 10° NNW
Cosmos 2150 Rocket 4.0 19:57:29 10° S 20:02:32 60° ESE 20:07:38 10° NNE
Cosmos 1340 Rocket 4.4 19:59:34 10° NNE 20:02:34 19° ENE 20:04:33 14° E
Lacrosse 4 Rocket 1.4 19:58:54 10° SSW 20:02:50 52° ESE 20:06:49 10° NE
Cosmos 2278 Rocket 2.7 20:00:09 10° S 20:05:14 35° ESE 20:10:22 10° NE
H-2A R/B 4.1 20:03:44 10° ENE 20:06:05 13° NE 20:08:24 10° NNE
USA 267 3.4 20:05:20 12° E 20:11:20 68° NNE 20:17:50 10° WNW
Cosmos 1470 4.4 20:12:24 16° E 20:12:43 16° E 20:15:09 10° NE
Meteor 1-24 Rocket 4.0 20:07:49 10° NNW 20:13:13 70° W 20:18:45 10° S
Cosmos 1898 Rocket 3.6 20:10:54 10° SSW 20:16:14 87° WNW 20:21:33 10° NNE
Cosmos 990 Rocket 4.0 20:12:49 10° S 20:17:59 63° ESE 20:23:11 10° NNE
Envisat 3.1 20:14:24 10° SSE 20:19:23 58° ENE 20:24:24 10° N
Cosmos 1821 Rocket 4.2 20:14:22 10° SSW 20:20:46 80° W 20:27:10 10° N
Cosmos 1408 Rocket 4.0 20:17:02 10° N 20:21:19 43° ENE 20:24:41 15° SE
Cosmos 1758 3.8 20:18:06 10° SSE 20:21:47 37° E 20:25:29 10° NNE
Cosmos 2263 Rocket 4.1 20:17:16 10° WSW 20:22:15 31° NW 20:27:13 10° NNE
Okean 3 Rocket 3.5 20:18:50 10° N 20:23:15 87° E 20:27:39 10° S
Cosmos 1048 Rocket 4.0 20:18:51 10° NNW 20:23:57 59° ENE 20:27:58 16° SE
Cosmos 1125 Rocket 4.3 20:20:32 10° SSE 20:24:55 28° E 20:29:21 10° NE
Geosat 4.0 20:23:58 10° NE 20:28:59 64° ESE 20:33:59 10° SSW
Cosmos 1939 Rocket 3.0 20:25:48 15° SSE 20:29:08 56° ENE 20:33:14 10° N
Cosmos 2082 Rocket 2.2 20:24:06 10° NNW 20:29:49 67° NE 20:34:06 18° SE
YAOGAN 6 3.5 20:28:26 24° ESE 20:29:49 32° ENE 20:33:10 10° N
Cosmos 1953 2.6 20:28:25 10° SSE 20:32:17 44° E 20:36:11 10° NNE
SAR-Lupe-4 4.0 20:29:23 10° S 20:32:55 61° WSW 20:36:30 10° NNW
Cosmos 2100 Rocket 4.4 20:31:52 10° SSE 20:37:40 40° E 20:43:32 10° NNE
Cosmos 1605 Rocket 4.0 20:32:20 10° S 20:38:36 82° E 20:45:01 10° NNE
Cosmos 1733 4.3 20:39:08 26° E 20:39:08 26° E 20:42:12 10° NNE
Cosmos 1818 3.7 20:33:48 10° NW 20:39:17 77° SW 20:43:19 18° SSE
ERS-1 Rocket 3.1 20:43:32 22° SE 20:46:43 58° ENE 20:51:41 10° N
Cosmos 2251 Rocket 4.3 20:43:19 10° NNW 20:48:14 36° NE 20:50:16 27° E
Cosmos 1937 Rocket 3.9 20:44:22 10° SW 20:49:35 66° WNW 20:54:54 10° NNE
Cosmos 1356 Rocket 4.4 20:46:06 10° N 20:49:46 29° ENE 20:50:13 28° E
GP-B 3.0 20:45:42 10° S 20:50:08 81° E 20:54:37 10° N
Resurs 01 Rocket 3.7 20:46:54 10° SSW 20:50:42 28° W 20:54:33 10° NW
Lacrosse 5 rocket 1.2 20:47:00 10° WNW 20:51:02 71° NNE 20:52:18 39° E
Meteor 1-21 Rocket 4.3 20:46:29 10° NNW 20:52:17 84° W 20:58:09 10° S
USA 186 3.6 20:50:30 10° SSW 20:52:21 21° W 20:54:09 10° NW
Abrixas 3.9 20:50:37 10° WSW 20:52:59 24° SSW 20:53:06 23° SSW
RESURS DK-1 4.4 20:50:10 10° NW 20:53:37 25° WSW 20:57:02 10° SSW
Cosmos 1802 Rocket 4.3 20:50:58 20° SSE 20:54:42 41° E 21:00:26 10° NNE
Cosmos 1269 Rocket 4.0 20:49:42 10° NNW 20:55:01 82° WSW 20:58:41 20° SSE
Cosmos 1844 4.1 20:50:28 10° SW 20:56:14 69° WNW 21:02:04 10° NNE
Lacrosse 5 2.0 20:53:09 10° SSW 20:58:01 48° SE 21:00:19 28° E
Timation 2 Rocket 3.9 20:54:27 10° NNW 21:00:57 89° WSW 21:04:42 26° SSE
Meteor 1-4 Rocket 2.3 20:58:19 16° S 21:00:59 83° E 21:04:29 10° NNE
Cosmos 2098 Rocket 4.4 20:54:34 10° S 21:01:48 84° E 21:09:28 10° N
Cosmos 2061 Rocket 4.2 20:56:56 14° SSE 21:02:12 52° E 21:08:25 10° NNE
Cosmos 1544 3.3 20:58:42 10° SSW 21:02:20 69° WNW 21:06:01 10° N
SPOT 5 3.4 21:00:54 33° ESE 21:02:53 48° ENE 21:08:01 10° N
Cosmos 1766 Rocket 3.7 20:58:44 10° NNW 21:03:14 78° W 21:06:19 20° S
ARGOS 3.6 21:02:12 33° ESE 21:03:59 44° ENE 21:09:03 10° N
Cosmos 1076 Rocket 4.2 21:01:18 10° NNW 21:05:28 53° W 21:09:16 12° S
Cosmos 2151 3.8 21:01:37 10° N 21:05:30 33° ENE 21:05:30 33° ENE
CZ-4B DEB 4.4 21:04:06 14° SSW 21:06:22 33° W 21:09:14 10° NNW
Meteor 1-29 3.1 21:03:08 10° N 21:06:35 72° WNW 21:10:03 10° SSW
Cosmos 1271 Rocket 3.0 21:07:52 48° E 21:07:52 48° E 21:11:39 10° NNE
COSMOS 2487 2.8 21:04:17 10° NNW 21:07:51 64° WSW 21:08:54 41° S
Cosmos 1184 Rocket 3.5 21:05:56 10° N 21:08:46 42° NE 21:08:46 42° NE
MetOp-A 4.1 21:07:53 34° SE 21:10:09 64° ENE 21:15:28 10° N
ATLAS CENTAUR R/B 3.4 21:10:26 10° NW 21:10:46 12° NNW 21:10:46 12° NNW
Cosmos 2058 3.8 21:14:12 10° N 21:17:35 33° NE 21:17:35 33° NE
USA 215 3.3 21:12:16 10° ENE 21:18:43 57° SE 21:25:07 10° SW
Cosmos 1867 4.2 21:13:42 10° S 21:21:46 23° ENE 21:23:57 10° NE
Helios 1B rocket 3.5 21:19:20 10° N 21:23:19 46° WNW 21:27:15 10° SW
CZ-3B DEB 1.9 21:21:26 10° WSW 21:29:51 84° SSE 21:31:10 48° ENE
Cosmos 1674 4.0 21:28:31 10° NNW 21:32:00 36° W 21:33:41 24° SW
Cosmos-2242 3.0 21:31:41 38° SSW 21:33:15 78° W 21:37:32 10° N
Cosmos 1743 Rocket 3.6 21:30:52 10° NNW 21:35:17 75° W 21:36:11 54° SSW
Terra 2.9 21:37:32 31° NE 21:37:32 31° NE 21:41:20 10° N
Cosmos 372 Rocket 3.8 21:33:29 16° SSW 21:37:36 79° ESE 21:42:47 10° NNE
Cosmos 1500 Rocket 3.3 21:33:55 10° N 21:38:18 88° E 21:38:28 83° SSE
Cosmos 1459 Rocket 3.9 21:32:17 11° S 21:38:28 87° W 21:44:41 10° N
Cosmos 1340 Rocket 3.6 21:35:25 10° NNW 21:39:22 50° W 21:40:13 41° SW
Cosmos 2173 Rocket 3.9 21:34:42 13° S 21:40:14 87° W 21:46:34 10° N
Cosmos 1844 Rocket 4.5 21:35:46 10° WSW 21:40:47 31° NW 21:45:47 10° NNE
H-2A R/B 2.9 21:41:57 35° NE 21:41:57 35° NE 21:44:55 10° N
Lacrosse 4 Rocket 3.5 21:38:21 10° W 21:41:48 26° NW 21:45:17 10° NNE
H-2A R/B 2.2 21:44:02 56° E 21:44:29 58° ENE 21:49:43 10° N
Cosmos 1833 Rocket 3.6 21:39:38 10° NW 21:44:56 43° WSW 21:47:28 27° SSW
NOAA 11 4.3 21:46:11 44° S 21:47:57 74° WSW 21:53:29 10° NNW
Cosmos 1470 3.4 21:47:44 49° WSW 21:48:24 56° WNW 21:52:20 10° N
Cosmos 2278 Rocket 3.1 21:43:40 10° SW 21:49:12 50° NW 21:54:45 10° NNE
Meteor 1-11 4.1 21:45:27 10° NNW 21:51:05 89° W 21:52:10 60° S
USA 267 3.4 21:52:40 47° SSE 21:54:28 63° SW 22:00:58 10° WNW
Cosmos 494 Rocket 3.8 21:49:28 10° NNW 21:54:36 80° WSW 21:55:04 72° SSW
Cosmos 2344 4.1 21:50:05 10° WSW 21:57:53 66° NW 22:07:30 10° NE
Cosmos 2297 3.8 21:55:20 10° SW 22:01:04 75° WNW 22:06:51 10° NNE
Cosmos 1125 Rocket 4.2 22:01:41 10° SW 22:06:45 51° WNW 22:11:53 10° NNE
BREEZE-M DEB (TANK) 4.4 22:03:18 10° WSW 22:07:40 71° SSE 22:25:53 10° E
Cosmos 2016 Rocket 4.1 22:08:25 33° SSW 22:11:22 72° WNW 22:17:33 10° N
Meteor 2-1 Rocket 4.5 22:13:41 55° NE 22:13:41 55° NE 22:18:22 10° NNE
Cosmos 1842 Rocket 4.2 22:14:09 54° NNW 22:14:09 54° NNW 22:17:44 10° N
Cosmos 2082 Rocket 4.0 22:08:52 10° NW 22:13:26 25° WSW 22:15:59 18° SW
Cosmos 1626 4.0 22:12:59 10° N 22:14:47 27° N 22:14:47 27° N
Cosmos 1725 Rocket 3.9 22:16:04 66° SSW 22:17:04 89° W 22:23:19 10° N
Meteor 1-16 Rocket 4.4 22:19:36 57° SW 22:20:48 75° WNW 22:26:47 10° N
Tsikada Rocket 4.2 22:15:47 10° NNW 22:21:55 65° W 22:23:11 53° SW
SPOT 1/Viking Rocket 4.0 22:27:55 54° WSW 22:28:02 54° W 22:33:11 10° NNW
Lacrosse 5 rocket 3.6 22:26:39 10° WNW 22:28:01 18° W 22:28:01 18° W
Cosmos 2251 Rocket 4.3 22:25:37 10° NW 22:30:38 44° WSW 22:30:47 43° WSW
Lacrosse 5 2.7 22:35:56 10° WSW 22:39:36 45° WNW 22:39:36 45° WNW
SPOT 5 4.4 22:40:09 30° WSW 22:41:06 32° W 22:45:54 10° NNW
ARGOS 4.3 22:43:42 33° WSW 22:44:21 34° W 22:49:14 10° NNW
Cosmos 2297 Rocket 4.2 22:52:41 10° NNW 22:56:28 18° NNE 22:57:34 17° NE
USA 215 3.4 22:58:09 28° ENE 23:01:54 71° NNW 23:08:24 10° WSW
Cosmos 1867 4.4 22:57:05 10° WSW 23:02:24 49° NW 23:07:44 10° NE
Cosmos 2369 Rocket 3.9 23:17:03 25° NE 23:17:03 25° NE 23:19:17 10° NNE
Terra 3.5 23:16:25 31° NW 23:16:25 31° NW 23:19:19 10° NNW
Cosmos 2227 Rocket 3.8 23:17:35 10° NNW 23:22:00 26° NE 23:22:00 26° NE
H-2A R/B 3.8 23:24:40 26° W 23:24:40 26° W 23:28:41 10° NW
CZ-3B DEB 4.3 23:37:52 10° WNW 23:38:53 14° WNW 23:38:53 14° WNW
